SES-2 (37809 NORAD) Tracking and Keplerian Element Data

This shows tracking and keplerian element data for the satellite.

Feedback or suggestion? Click here.




ElementValue
Catalog37809
NameSES-2
Epoch Orbit5216
Epoch Day354.1761417
Epoch Year2025
RAAN51.9765
Inclination0.0319
Eccentricity0.0002477
Argument of Perigee214.554
Mean Anonmoly158.9124
Mean Motion1.002725
Decay Rate-1.72E-06
L11 37809U 11049A 25354.17614170 -.00000172 00000+0 00000+0 0 9997
L22 37809 0.0319 51.9765 0002477 214.5540 158.9124 1.00272500 52167



Live tracking and technical data element details for SES-2 (NORAD 37809). SES-2 can be tracked NOW for your location showing map with azimuth and elevation plus other details from your city location.







IsCatalogInMostPopularTable: catalog: 37809, numindb: 391
Update: records affected: 1



GetName: 37809 SES-2

Hit Count: updated at: Thu, 21 May 2026 11:55:08 GMT